Location: Huberhof
(49.2050°N, 7.4980°E)
Time: 23:28:17
(UTC+00:00)

COSMO-SKYMED 1 - Visible Passes

Search period start: 01 March 2021 00:00
Search period end: 11 March 2021 00:00
Orbit: 621 x 623 km, 97.9° (Epoch: 01 March)

Date Brightness Start Highest point End Pass type
(mag) Time Alt. Az. Time Alt. Az. Time Alt. Az.
01 Mar 4.3 03:50:10 10° SE 03:54:06 34° ENE 03:58:01 10° N visible
01 Mar 3.4 05:26:30 10° SSW 05:30:17 29° W 05:34:05 10° NW visible
01 Mar 4.8 18:45:36 10° N 18:49:16 27° WNW 18:52:54 10° WSW visible
02 Mar 3.5 04:07:50 10° SE 04:12:01 50° ENE 04:16:14 10° N visible
02 Mar 5.4 19:04:02 10° NNW 19:07:07 19° WNW 19:10:12 10° WSW visible
03 Mar 5.9 02:53:25 10° ENE 02:54:37 11° NE 02:55:49 10° NE visible
03 Mar 2.8 04:25:41 10° SSE 04:30:00 75° ENE 04:34:22 10° N visible
03 Mar 2.6 17:45:01 10° NNE 17:49:23 85° ESE 17:53:45 10° SSW visible
03 Mar 5.7 19:22:43 10° NNW 19:24:56 14° WNW 19:27:09 10° W visible
04 Mar 5.6 03:09:51 10° E 03:12:25 16° ENE 03:14:58 10° NNE visible
04 Mar 2.5 04:43:42 10° S 04:48:02 74° WSW 04:52:24 10° NNW visible
04 Mar 3.1 18:03:05 10° N 18:07:24 65° WNW 18:11:42 10° SSW visible
05 Mar 5.1 03:26:56 10° ESE 03:30:14 22° ENE 03:33:32 10° NNE visible
05 Mar 2.8 05:01:54 10° S 05:06:06 49° W 05:10:21 10° NNW visible
05 Mar 3.9 18:21:14 10° N 18:25:22 43° WNW 18:29:29 10° SW visible
06 Mar 4.5 03:44:19 10° SE 03:48:07 30° ENE 03:51:55 10° N visible
06 Mar 3.3 05:20:18 10° SSW 05:24:13 33° W 05:28:10 10° NNW visible
06 Mar 4.7 18:39:28 10° N 18:43:17 30° WNW 18:47:04 10° SW visible
07 Mar 3.8 04:01:55 10° SE 04:06:02 43° ENE 04:10:10 10° N visible
07 Mar 5.3 18:57:51 10° NNW 19:01:09 22° WNW 19:04:27 10° WSW visible
08 Mar 3.0 04:19:41 10° SSE 04:23:59 65° ENE 04:28:19 10° N visible
08 Mar 5.7 19:16:25 10° NNW 19:18:59 15° WNW 19:21:32 10° W visible
09 Mar 5.8 03:04:14 10° E 03:06:27 14° ENE 03:08:40 10° NNE visible
09 Mar 2.5 04:37:39 10° SSE 04:42:00 84° WSW 04:46:22 10° NNW visible
09 Mar 2.9 17:57:01 10° N 18:01:23 74° WNW 18:05:42 10° SSW visible
09 Mar 6.0 19:35:34 10° NW 19:36:46 11° NW 19:37:57 10° WNW visible
10 Mar 5.3 03:21:10 10° ESE 03:24:15 19° ENE 03:27:21 10° NNE visible
10 Mar 2.6 04:55:47 10° S 05:00:02 56° W 05:04:21 10° NNW visible
10 Mar 3.7 18:15:08 10° N 18:19:21 49° WNW 18:23:32 10° SW visible
